Home > Weather > Belo Horizonte > Past weeks

Flag for Brazil Weather for the Past 2 Weeks in Belo Horizonte, Minas Gerais, Brazil

Now
79 °F

Clear.


Feels Like: 80 °F
Forecast: 72 / 91 °F
Wind: 6 mph from East

Location: Belo Horizonte Airport

Current Time: Feb 11, 2016 at 1:17:54 AM

Latest Report: Feb 11, 2016 at 12:00 AM


Visibility: 10 mi

Pressure: 30.07 "Hg (27.26 "Hg at 860m altitude)

Humidity: 54%

Dew point: 61 °F

Location of Belo HorizonteLocation

Historic Weather in Belo Horizonte — Graph

°F

Belo Horizonte Temperature Yesterday

Maximum temperature yesterday: 90 °F (at 3:00 PM)
Minimum temperature yesterday: 66 °F (at 7:00 AM)
Average temperature yesterday: 78 °F

High & Low Weather Summary for the Past Weeks

 TemperatureHumidityPressure
High90 °F (Feb 10, 3:00 PM)100% (Jan 28, 7:00 AM)30.21 "Hg (Jan 28, 7:00 AM)
Low45 °F (Jan 28, 3:00 PM)33% (Feb 2, 3:00 PM)29.92 "Hg (Jan 27, 5:00 PM)
Average76 °F64%30.09 "Hg
* Reported Jan 26 11:00 PM — Feb 10 11:00 PM, Belo Horizonte, Weather by CustomWeather, © 2016

Note: Actual official high and low records may vary slightly from our data, if they occured in-between our weather recording intervals... More about our weather records

Advertising

Belo Horizonte Weather History for the Previous 24 Hours

 ConditionsComfort  
Time TempWeatherWind HumidityBarometerVisibility
11:00 PM
Wed, Feb 10
77 °FClear.2 mph61%30.07 "Hg10 mi
10:00 PM81 °FClear.2 mph51%30.07 "Hg10 mi
9:00 PM82 °FClear.3 mph45%30.04 "Hg10 mi
8:00 PM84 °FPassing clouds.5 mph43%30.04 "HgN/A
7:00 PM88 °FPassing clouds.6 mph38%30.04 "HgN/A
6:00 PM86 °FScattered clouds.6 mph40%30.01 "HgN/A
5:00 PM90 °FScattered clouds.3 mph36%30.04 "HgN/A
4:00 PM88 °FPassing clouds.8 mph35%30.04 "HgN/A
3:00 PM90 °FScattered clouds.3 mph36%30.07 "HgN/A
2:00 PM88 °FScattered clouds.8 mph38%30.07 "HgN/A
1:00 PM84 °FScattered clouds.5 mph43%30.09 "HgN/A
12:00 PM82 °FPassing clouds.6 mph48%30.12 "HgN/A
11:00 AM82 °FSunny.7 mph48%30.15 "Hg10 mi
10:00 AM79 °FSunny.5 mph54%30.15 "Hg10 mi
9:00 AM75 °FSunny.7 mph61%30.15 "Hg10 mi
8:00 AM70 °FSunny.1 mph78%30.12 "Hg10 mi
7:00 AM66 °FClear.1 mph88%30.12 "Hg10 mi
6:00 AM68 °FClear.1 mph83%30.09 "Hg10 mi
5:00 AM68 °FClear.3 mph83%30.09 "Hg10 mi
4:00 AM68 °FClear.2 mph83%30.12 "Hg10 mi
3:00 AM70 °FClear.3 mph78%30.12 "Hg10 mi
2:00 AM72 °FClear.3 mph73%30.12 "Hg10 mi
1:00 AM73 °FClear.6 mph65%30.15 "Hg10 mi
Weather by CustomWeather, © 2016

See weather overviewHow to use our weather pages